Weather History for Chehalis, WA

Change the Weather History Date:

Saturday, February 8, 2014

  Actual Average (KOLM) Record (KOLM)
Temperature  
Mean Temperature 32 °F 41 °F  
Max Temperature 37 °F 49 °F 69 °F (1963)
Min Temperature 28 °F 33 °F 9 °F (1989)
Degree Days  
Heating Degree Days 32 24  
Month to date heating degree days 193  
Since 1 July heating degree days 3244  
Cooling Degree Days 0 0  
Month to date cooling degree days 0  
Year to date cooling degree days 0  
Moisture  
Dew Point 27 °F    
Average Humidity 81    
Maximum Humidity 100    
Minimum Humidity 56    
Precipitation  
Precipitation 0.01 in 0.20 in 2.75 in (1996)
Month to date precipitation 1.63  
Year to date precipitation 9.47  
Sea Level Pressure  
Sea Level Pressure 29.91 in    
Wind  
Wind Speed 5 mph (NNE)    
Max Wind Speed 10 mph    
Max Gust Speed -    
Visibility 8 miles    
Events Rain , Snow    
T = Trace of Precipitation, MM = Missing Value Source: NWS Daily Summary

Daily Weather History Graph

Daily Weather History Graph

Search for Another Location

Airport:

Trip Planner

Search our weather history database for the weather conditions in past years. The results will help you decide how hot, cold, wet, or windy it might be!

Date:

Astronomy

Feb. 08, 2014 Rise Set
Actual Time 7:26 AM PST 5:26 PM PST
Civil Twilight 6:54 AM PST 5:58 PM PST
Nautical Twilight 6:18 AM PST 6:34 PM PST
Astronomical Twilight 5:43 AM PST 7:09 PM PST
Moon 12:18 PM PST (2/8) 2:49 AM PST (2/8)
Length of Visible Light 11h 03m
Length of Day
10h 00m
Waxing Gibbous, 69% of the Moon is Illuminated
Feb 8
Waxing Gibbous
Feb 14
Full
Feb 22
Last Quarter
Mar 1
New
Mar 8
First Quarter

Hourly Weather History & Observations

Time (PST) Temp. Windchill Dew Point Humidity Pressure Visibility Wind Dir Wind Speed Gust Speed Precip Events Conditions
12:15 AM 32.0 °F 24.8 °F 21.2 °F 64% 29.82 in 10.0 mi NNE 8.1 mph - N/A   Overcast
12:35 AM 32.0 °F 24.2 °F 19.4 °F 60% 29.84 in 10.0 mi NNE 9.2 mph - N/A   Overcast
12:55 AM 32.0 °F 24.8 °F 19.4 °F 60% 29.85 in 10.0 mi NNE 8.1 mph - N/A   Overcast
1:15 AM 32.0 °F 24.2 °F 19.4 °F 60% 29.86 in 10.0 mi NNE 9.2 mph - N/A   Overcast
1:35 AM 32.0 °F 26.4 °F 19.4 °F 60% 29.87 in 10.0 mi NE 5.8 mph - N/A   Overcast
1:55 AM 32.0 °F 27.5 °F 19.4 °F 60% 29.88 in 10.0 mi NE 4.6 mph - N/A   Overcast
2:15 AM 32.0 °F 28.7 °F 19.4 °F 60% 29.89 in 10.0 mi NE 3.5 mph - N/A   Overcast
2:35 AM 32.0 °F 27.5 °F 19.4 °F 60% 29.91 in 10.0 mi NE 4.6 mph - N/A   Overcast
2:55 AM 32.0 °F 27.5 °F 19.4 °F 60% 29.92 in 10.0 mi NE 4.6 mph - N/A   Overcast
3:15 AM 32.0 °F 28.7 °F 19.4 °F 60% 29.93 in 10.0 mi NNE 3.5 mph - N/A Rain Light Rain
3:35 AM 32.0 °F 27.5 °F 23.0 °F 69% 29.95 in 10.0 mi North 4.6 mph - N/A   Overcast
3:55 AM 32.0 °F - 23.0 °F 69% 29.95 in 10.0 mi Calm Calm - N/A   Overcast
4:15 AM 32.0 °F 26.4 °F 24.8 °F 75% 29.96 in 10.0 mi South 5.8 mph - N/A   Overcast
4:35 AM 32.0 °F - 26.6 °F 80% 29.96 in 9.0 mi Calm Calm - N/A Snow Light Snow
4:55 AM 32.0 °F - 28.4 °F 87% 29.97 in 5.0 mi Calm Calm - N/A Snow Light Snow
5:15 AM 30.2 °F 26.7 °F 28.4 °F 93% 29.97 in 10.0 mi NNW 3.5 mph - N/A Snow Light Snow
5:35 AM 28.4 °F 24.6 °F 26.6 °F 93% 29.98 in 10.0 mi North 3.5 mph - N/A Snow Light Snow
5:55 AM 28.4 °F 24.6 °F 26.6 °F 93% 29.98 in 10.0 mi North 3.5 mph - N/A   Overcast
6:15 AM 30.2 °F - 26.6 °F 86% 29.99 in 10.0 mi Calm Calm - N/A   Overcast
6:35 AM 30.2 °F 25.4 °F 24.8 °F 80% 29.98 in 10.0 mi ENE 4.6 mph - N/A   Overcast
6:55 AM 30.2 °F 24.3 °F 24.8 °F 80% 29.97 in 10.0 mi NE 5.8 mph - N/A   Overcast
7:15 AM 28.4 °F - 24.8 °F 86% 29.99 in 10.0 mi Calm Calm - N/A   Overcast
7:35 AM 28.4 °F - 24.8 °F 86% 29.99 in 10.0 mi Calm Calm - N/A   Overcast
7:55 AM 30.2 °F 26.7 °F 24.8 °F 80% 29.98 in 10.0 mi NE 3.5 mph - N/A   Overcast
8:15 AM 28.4 °F 24.6 °F 24.8 °F 86% 29.99 in 10.0 mi NNE 3.5 mph - N/A   Overcast
8:35 AM 30.2 °F 26.7 °F 26.6 °F 86% 29.99 in 10.0 mi North 3.5 mph - N/A   Overcast
8:55 AM 32.0 °F 28.7 °F 26.6 °F 80% 30.00 in 10.0 mi NNE 3.5 mph - N/A   Overcast
9:15 AM 32.0 °F 26.4 °F 24.8 °F 75% 30.00 in 10.0 mi NNE 5.8 mph - N/A   Mostly Cloudy
9:35 AM 32.0 °F 25.6 °F 24.8 °F 75% 29.99 in 10.0 mi NE 6.9 mph - N/A   Partly Cloudy
9:55 AM 32.0 °F 26.4 °F 24.8 °F 75% 30.01 in 10.0 mi NNE 5.8 mph - N/A   Clear
10:15 AM 32.0 °F 25.6 °F 24.8 °F 75% 30.00 in 10.0 mi NNE 6.9 mph - N/A   Scattered Clouds
10:35 AM 32.0 °F 27.5 °F 24.8 °F 75% 30.00 in 10.0 mi NE 4.6 mph - N/A   Partly Cloudy
10:55 AM 33.8 °F 29.6 °F 24.8 °F 70% 29.99 in 10.0 mi NE 4.6 mph - 0.01 in   Partly Cloudy
11:15 AM 35.6 °F 32.8 °F 24.8 °F 65% 29.99 in 10.0 mi ENE 3.5 mph - N/A   Mostly Cloudy
11:35 AM 35.6 °F 29.9 °F 24.8 °F 65% 29.97 in 10.0 mi NNE 6.9 mph - N/A   Overcast
11:55 AM 35.6 °F 29.9 °F 26.6 °F 70% 29.96 in 10.0 mi North 6.9 mph - N/A   Overcast
12:15 PM 35.6 °F 29.2 °F 26.6 °F 70% 29.95 in 10.0 mi NNE 8.1 mph - N/A   Overcast
12:35 PM 35.6 °F 29.9 °F 26.6 °F 70% 29.93 in 10.0 mi NE 6.9 mph - N/A   Overcast
12:55 PM 37.4 °F 32.1 °F 26.6 °F 65% 29.93 in 10.0 mi NNE 6.9 mph - N/A   Overcast
1:15 PM 37.4 °F 31.4 °F 26.6 °F 65% 29.91 in 10.0 mi NE 8.1 mph - N/A   Overcast
1:35 PM 37.4 °F 31.4 °F 26.6 °F 65% 29.90 in 10.0 mi ENE 8.1 mph - N/A   Scattered Clouds
1:55 PM 37.4 °F 31.4 °F 23.0 °F 56% 29.89 in 10.0 mi ENE 8.1 mph - N/A   Partly Cloudy
2:15 PM 37.4 °F 30.3 °F 24.8 °F 60% 29.86 in 10.0 mi NE 10.4 mph - N/A   Partly Cloudy
2:35 PM 37.4 °F 32.1 °F 24.8 °F 60% 29.85 in 10.0 mi NE 6.9 mph - N/A   Clear
2:55 PM 37.4 °F 31.4 °F 24.8 °F 60% 29.83 in 10.0 mi NE 8.1 mph - N/A   Clear
3:15 PM 37.4 °F 33.8 °F 23.0 °F 56% 29.84 in 10.0 mi ENE 4.6 mph - N/A   Scattered Clouds
3:35 PM 37.4 °F 34.9 °F 23.0 °F 56% 29.85 in 10.0 mi NE 3.5 mph - N/A   Mostly Cloudy
3:55 PM 35.6 °F 29.2 °F 26.6 °F 70% 29.85 in 1.0 mi ENE 8.1 mph - N/A   Haze
4:15 PM 32.0 °F 25.6 °F 30.2 °F 93% 29.85 in 0.5 mi NE 6.9 mph - N/A Snow Snow
4:35 PM 32.0 °F 27.5 °F 32.0 °F 100% 29.85 in 1.0 mi NNE 4.6 mph - N/A Snow Light Snow
4:55 PM 32.0 °F 28.7 °F 32.0 °F 100% 29.85 in 1.2 mi NNE 3.5 mph - N/A Snow Light Snow
5:15 PM 32.0 °F 28.7 °F 32.0 °F 100% 29.83 in 0.5 mi NE 3.5 mph - N/A Snow Snow
5:35 PM 32.0 °F 28.7 °F 32.0 °F 100% 29.82 in - NNE 3.5 mph - N/A Snow Heavy Snow
5:55 PM 32.0 °F 28.7 °F 32.0 °F 100% 29.83 in - North 3.5 mph - N/A Snow Heavy Snow
6:15 PM 32.0 °F 28.7 °F 32.0 °F 100% 29.82 in 1.5 mi NNE 3.5 mph - N/A Snow Light Snow
6:35 PM 32.0 °F 26.4 °F 32.0 °F 100% 29.82 in 1.0 mi North 5.8 mph - N/A Snow Light Snow
6:55 PM 32.0 °F 27.5 °F 32.0 °F 100% 29.82 in - North 4.6 mph - N/A Snow Heavy Snow
7:15 PM 32.0 °F 28.7 °F 32.0 °F 100% 29.83 in - North 3.5 mph - N/A Snow Heavy Snow
7:35 PM 32.0 °F 25.6 °F 32.0 °F 100% 29.83 in - North 6.9 mph - N/A Snow Heavy Snow
7:55 PM 32.0 °F 24.2 °F 32.0 °F 100% 29.82 in - NNE 9.2 mph - N/A Snow Heavy Snow
8:15 PM 32.0 °F 28.7 °F 32.0 °F 100% 29.83 in 2.0 mi North 3.5 mph - N/A Snow Light Snow
8:35 PM 32.0 °F 26.4 °F 32.0 °F 100% 29.85 in 1.5 mi North 5.8 mph - N/A Snow Light Snow
8:55 PM 32.0 °F 28.7 °F 32.0 °F 100% 29.86 in - North 3.5 mph - N/A Snow Heavy Snow
9:15 PM 32.0 °F 27.5 °F 32.0 °F 100% 29.88 in - NNE 4.6 mph - N/A Snow Heavy Snow
9:35 PM 32.0 °F 27.5 °F 32.0 °F 100% 29.88 in - NNE 4.6 mph - N/A Snow Heavy Snow
9:55 PM 32.0 °F 28.7 °F 32.0 °F 100% 29.88 in 3.0 mi North 3.5 mph - N/A Snow Light Snow
10:15 PM 32.0 °F - 32.0 °F 100% 29.89 in 4.0 mi Calm Calm - N/A Snow Light Snow
10:35 PM 32.0 °F 28.7 °F 32.0 °F 100% 29.90 in 8.0 mi North 3.5 mph - N/A Snow Light Snow
10:55 PM 32.0 °F 27.5 °F 32.0 °F 100% 29.93 in 5.0 mi NNW 4.6 mph - N/A Snow Light Snow
11:15 PM 32.0 °F - 32.0 °F 100% 29.94 in 7.0 mi Calm Calm - N/A   Overcast
11:35 PM 32.0 °F - 32.0 °F 100% 29.96 in 2.0 mi Calm Calm - N/A Snow Light Snow
11:55 PM 32.0 °F - 32.0 °F 100% 29.98 in 1.8 mi Calm Calm - N/A Snow Light Snow